Flag for Ukraine Weather past 2 weeks in Chernobyl, Ukraine

Now
63 °F

Mild.


Feels Like: 63 °F
Forecast: 60 / 85 °F
Wind: 3 mph from Northeast

Location: Hostomel

Current Time: Jul 24, 2014 at 6:57:42 AM

Latest Report: Jul 24, 2014 at 6:00 AM


Visibility: N/A

Pressure: 29.95 "Hg

Humidity: 73%

Dew point: 54 °F

Location of ChernobylLocation

Historic Weather in Chernobyl — Graph

°F

Chernobyl temperature yesterday

Maximum temperature yesterday: 75 °F (at 5:00 PM)
Minimum temperature yesterday: 63 °F (at 6:00 AM)
Average temperature yesterday: 70 °F

Past Weeks' High & Low Weather Summary

 TemperatureHumidityPressure
High88 °F (Jul 17, 3:00 PM)100% (Jul 11, 2:00 AM)30.07 "Hg (Jul 11, 2:00 AM)
Low57 °F (Jul 11, 5:00 AM)27% (Jul 15, 5:00 PM)29.65 "Hg (Jul 12, 2:00 PM)
Average71 °F68%29.90 "Hg
* Reported Jul 9 6:00 AM — Jul 24 6:00 AM, Chernobyl, Weather by CustomWeather, © 2014

Note: Actual official high and low records may vary slightly from our data, if they occured in-between our weather recording intervals... More about our weather records

Advertising

Chernobyl weather history for previous 24 hours

 ConditionsComfort  
Time TempWeatherWind HumidityBarometerVisibility
6:00 AM
Jul 24
63 °FMild.3 mph73%29.95 "HgN/A
5:00 AM63 °FMild.6 mph73%29.95 "HgN/A
4:00 AM64 °FMild.6 mph68%29.95 "HgN/A
3:00 AM66 °FMild.6 mph64%29.95 "HgN/A
2:00 AM66 °FMild.6 mph68%29.98 "HgN/A
1:00 AM68 °FMild.6 mph64%29.98 "HgN/A
12:00 AM68 °FMild.3 mph69%29.98 "HgN/A
11:00 PM
Jul 23
68 °FMild.3 mph69%29.98 "HgN/A
10:00 PM70 °FMild.3 mph64%29.98 "HgN/A
9:00 PM72 °FMild.1 mph61%29.98 "HgN/A
8:00 PM73 °FMild.3 mph53%29.98 "HgN/A
7:00 PM73 °FMild.6 mph53%29.95 "HgN/A
6:00 PM75 °FMild.8 mph50%29.98 "HgN/A
5:00 PM75 °FMostly cloudy.8 mph54%29.98 "HgN/A
4:00 PM73 °FMostly cloudy.8 mph57%29.98 "HgN/A
3:00 PM73 °FOvercast.10 mph53%29.98 "HgN/A
2:30 PM73 °FOvercast.6 mph53%29.98 "HgN/A
2:00 PM72 °FPartly sunny.6 mph61%30.01 "HgN/A
1:30 PM72 °FPartly sunny.3 mph61%30.01 "HgN/A
1:00 PM72 °FBroken clouds.8 mph57%30.01 "HgN/A
12:30 PM72 °FBroken clouds.6 mph57%30.01 "HgN/A
12:00 PM72 °FPartly sunny.8 mph57%30.01 "HgN/A
11:30 AM72 °FPartly sunny.8 mph57%29.98 "HgN/A
11:00 AM72 °FPartly sunny.10 mph57%29.98 "HgN/A
9:00 AM66 °FPassing clouds.8 mph78%29.98 "HgN/A
8:00 AM64 °FPassing clouds.6 mph83%29.98 "HgN/A
7:00 AM64 °FSunny.6 mph83%29.98 "Hg10 mi
6:00 AM63 °FMild.3 mph88%29.98 "HgN/A
Weather by CustomWeather, © 2014

See weather overviewHow to use our weather pages